« Back
NWS Peachtree City, Ga » Text Product » ATL Terminal Aerodrome Forecast


Printer-friendly Version
Current Version              Previous Versions:   1  2  3  4  5  6  7  8  9  

Terminal Aerodrome Forecast

947
FTUS42 KFFC 180520
TAFATL
TAF
KATL 180520Z 1806/1912 07007KT 3SM -RA BR BKN005 OVC020
     FM180800 05005KT 2SM -DZ BR OVC003
     FM181400 07006KT P6SM BKN008
     FM181800 11008KT P6SM BKN025 PROB30 1821/1824 4SM TSRA SCT025CB
      BKN035
     FM190300 12006KT P6SM -RA BKN015
     FM190600 13006KT 3SM -SHRA BR BKN006 OVC012=



USA.gov is the U.S. government's official web portal to all federal, state and local government web resources and services.